sat.trackr.live / text

‹ back to catalog

SES-4

NORAD 38087 · 2012-007A

PAYLOAD ACTIVE UNKNOWN

§ Identity

Operator
Country
SES
Launch date
2012-02-14
Launch site
TYMSC
Launch vehicle
Mass (kg)
RCS (m²)
63.35

Purposes: comms

External: N2YO · Heavens-Above · Gunter

§ Orbital elements

Epoch: 2026-05-25T03:38:17.866752Z

Period
1,436.09 min
Inclination
0.0265°
Eccentricity
0.0002402
Mean motion
1.00272253 rev/d
Perigee alt
35,776.3 km
Apogee alt
35,796.6 km
Semi-major
42,164.6 km
B*
0.0000e+0
RAAN
24.2197°
Arg perigee
47.0153°
Mean anomaly
204.0992°
Rev number
5,199

§ Raw data

SES-41 38087U 12007A   26145.15159568 -.00000170  00000+0  00000+0 0  99912 38087   0.0265  24.2197 0002402  47.0153 204.0992  1.00272253 51996

JSON: /api/v1/satellites/38087 · /tle

For live sub-satellite position, see the globe view (requires WebGL).

§ Visibility from observer

Set your observer location to see the next 7 days of passes ≥ 10°. The values pass through the URL so the page stays shareable.

No JS? Fill the form by hand. The geolocation button needs JavaScript.